Regional Weather Roundup
Issued by NWS

Home | Current Version | Previous Version | Graphics & Text | Print | Product List | Glossary On
Versions: 1 2 3 4 5 6 7 8 9 10 11 12 13 14 15 16 17 18 19 20 21 22 23 24 25 26 27 28 29 30 31 32 33 34 35 36 37 38 39 40 41 42 43 44 45 46 47 48 49 50
000
ASUS43 KDMX 290307
RWRIA

WEATHER ROUNDUP FOR IOWA
NATIONAL WEATHER SERVICE DES MOINES IA
1000 PM CDT MON JUL 28 2014

NOTE: "FAIR" INDICATES FEW OR NO CLOUDS BELOW 12,000 FEET WITH NO
SIGNIFICANT WEATHER AND/OR OBSTRUCTIONS TO VISIBILITY.

* - THESE STATIONS ARE NOT NWS STATIONS...THUS NOT UNDER NWS
QUALITY CONTROL.  THEY ALSO DO NOT REPORT WEATHER SUCH
AS PRECIPITATION OR FOG.

IAZ001>003-012>014-020>022-031>034-043>046-290400-
   NORTHWEST IOWA

CITY           SKY/WX    TMP DP  RH WIND       PRES   REMARKS
CARROLL *      MOCLDY    61  59  94 CALM      30.18S
CHEROKEE *     CLEAR     63  59  88 CALM      30.20R
DENISON *      CLEAR     64  61  88 CALM      30.17S
LE MARS *      CLEAR     63  59  88 N3        30.21R
ORANGE CITY *  CLEAR     66  55  68 CALM      30.21R
SHELDON *      CLEAR     59  57  94 NE5       30.20S
SIOUX CITY     CLEAR     65  56  72 N3        30.20R
SPENCER        CLEAR     58  54  86 NW6       30.20R
STORM LAKE *   CLEAR     61  61 100 N6        30.21R
$$

IAZ055>058-069>071-079>083-090>094-290400-
   SOUTHWEST IOWA

CITY           SKY/WX    TMP DP  RH WIND       PRES   REMARKS
ATLANTIC *     CLOUDY    63  59  88 N3        30.18R
AUDUBON *      PTCLDY    64  61  88 CALM      30.20R
CLARINDA *     CLEAR     64  59  82 CALM      30.19R
COUNCIL BLFS *   N/A     66  59  77 N5        30.18R
CRESTON *      MOCLDY    64  59  82 CALM      30.18R
HARLAN  *      MOCLDY    64  61  88 CALM      30.22R
LAMONI         MOCLDY    65  58  78 CALM      30.17R
RED OAK *      CLEAR     63  59  88 CALM      30.18R
SHENANDOAH *   CLEAR     63  59  88 CALM      30.19R
$$

IAZ047>049-059>061-072>074-084-290400-
   CENTRAL IOWA

CITY           SKY/WX    TMP DP  RH WIND       PRES   REMARKS
AMES           CLEAR     60  58  92 W5        30.16R
ANKENY *       CLEAR     61  59  94 CALM      30.16R
CHARITON *     CLOUDY    64  59  82 W5        30.16S
DES MOINES     PTCLDY    67  58  72 W3        30.16R
GRINNELL*      PTCLDY    61  59  94 W3        30.16S
KNOXVILLE *    CLEAR     64  59  82 NW3       30.15R
MARSHALLTOWN   CLEAR     61  59  93 NW3       30.15R
PELLA *        CLEAR     63  59  88 CALM      30.16S
PERRY *          N/A     63  61  94 CALM      30.18R
$$

IAZ004>006-015-016-023>025-035-036-290400-
   NORTH CENTRAL IOWA

CITY           SKY/WX    TMP DP  RH WIND       PRES   REMARKS
ALGONA *       CLEAR     63  59  88 NW3       30.19R
CLARION *      CLEAR     61  57  88 N3        30.17S
ESTHERVILLE    CLEAR     58  55  90 NW7       30.19R
FORT DODGE *   CLEAR     59  54  82 CALM      30.19R
MASON CITY     CLEAR     60  55  83 NW5       30.18R
FOREST CITY *  CLEAR     59  55  88 CALM      30.17S
IOWA FALLS *     N/A     61  57  88 CALM      30.17S
$$

IAZ007>011-017>019-026>030-037>042-050>054-066-290400-
   NORTHEAST IOWA

CITY           SKY/WX    TMP DP  RH WIND       PRES   REMARKS
CEDAR RAPIDS   CLEAR     63  56  78 NW6       30.13R
CHARLES CITY * CLEAR     59  57  94 NW5       30.16S
CLINTON *      CLEAR     57  54  88 NW7       30.14S
DECORAH *      CLEAR     57  55  94 CALM      30.14R
DUBUQUE        CLEAR     58  53  84 NW6       30.13R
MONTICELLO *   CLEAR     57  57 100 CALM      30.13R
OELWEIN *      CLEAR     61  57  88 NW6       30.15S
WATERLOO       CLEAR     61  56  83 CALM      30.14R
$$

IAZ064-065-067-068-078-290400-
   EAST CENTRAL IOWA

CITY           SKY/WX    TMP DP  RH WIND       PRES   REMARKS
DAVENPORT      CLEAR     57  54  89 W5        30.13R
IOWA CITY      CLEAR     62  58  86 NW5       30.14R
MT. PLEASANT * CLEAR     63  57  82 CALM      30.14R
MUSCATINE *    CLEAR     61  55  82 CALM      30.13R
QUAD CITIES    CLEAR     59  53  80 CALM      30.12R
$$

IAZ062-063-075>077-085>089-095>099-290400-
   SOUTHEAST IOWA

CITY           SKY/WX    TMP DP  RH WIND       PRES   REMARKS
BURLINGTON     CLEAR     63  56  78 NW6       30.13R
FAIRFIELD *    CLEAR     61  57  88 NW5       30.15R
FORT MADISON * CLEAR     63  61  94 CALM      30.15R
KEOKUK *       CLEAR     63  59  88 CALM      30.13S
OSKALOOSA *      N/A     63  59  88 W7        30.15S
CENTERVILLE *  MOCLDY    63  63 100 CALM      30.17S
OTTUMWA        CLEAR     62  59  90 CALM      30.14S
WASHINGTON *   CLEAR     61  59  94 W5        30.14R
$$

ABBREVIATIONS USED IN REMARKS
   TC - TEMPERATURES IN CELSIUS
  WCI - WIND CHILL INDEX
   HX - HEAT INDEX
  VSB - VISIBILITY
$$




USA.gov is the U.S. government's official web portal to all federal, state and local government web resources and services.